RH
88 83 77 76 78 83 88 93 94 94 94 95 92 88 86 90 91 91 95 94 94 95 98 98 97 97 99 99 98 98 99 98 95 90 86 80 79 80 83 84 80 72 62 71 83 93 96 96 98 99 98 96 93 90 86 83 82 83 84 86 89 92 95 94 94 94 92 88 86 87 91 93 94 96 99 100 99 99 98 96 90 88 97 98 96 93
87 84 81 80 83 88 91 94 95 95 95 94 90 89 90 87 85 86 94 94 94 94 96 96 96 96 98 99 99 99 99 99 97 93 88 82 80 80 82 83 80 74 62 64 76 88 93 94 96 98 99 96 93 90 86 82 80 80 80 81 83 87 92 93 95 96 96 93 91 90 92 93 94 96 98 99 99 99 99 96 92 90 98 99 97 94
88 87 86 85 86 89 93 94 94 95 95 94 90 87 85 85 86 88 92 94 93 91 90 91 92 94 96 98 99 99 99 99 98 96 91 86 82 81 81 82 80 76 65 60 68 81 90 90 92 95 99 97 93 88 85 81 80 78 78 78 80 82 86 90 94 96 98 98 97 96 96 96 96 97 98 99 99 99 99 95 90 88 98 98 98 96
89 90 90 87 86 89 94 94 94 94 94 94 94 93 92 90 90 92 92 92 91 90 87 88 90 92 95 98 99 99 99 99 99 97 93 90 86 84 83 83 81 76 68 61 64 74 87 87 87 90 96 98 95 89 82 80 78 77 77 77 78 80 82 88 92 96 98 99 99 99 98 98 98 98 99 100 100 99 99 96 88 84 93 95 96 96
90 92 92 89 88 89 93 94 93 93 94 95 96 96 96 95 94 94 93 92 90 88 86 86 88 91 94 97 99 99 99 99 99 98 95 92 90 87 86 86 83 78 70 64 64 70 80 84 83 83 89 95 96 92 82 78 76 76 77 77 78 79 82 87 92 96 98 98 99 99 99 98 98 98 98 99 99 99 98 96 90 85 84 88 91 93
92 92 91 90 90 90 93 94 94 94 95 96 96 97 97 97 97 96 96 95 93 92 89 86 87 90 93 96 98 99 99 99 99 98 97 95 92 88 88 89 87 82 74 70 68 70 73 78 80 80 82 89 95 96 87 79 74 74 75 76 77 79 82 87 92 95 96 97 98 98 98 98 97 97 96 98 98 98 97 96 93 88 81 81 83 87
92 92 90 90 90 92 93 94 94 95 96 96 97 97 98 98 97 97 98 98 98 97 95 92 89 88 92 95 96 98 98 99 99 99 98 96 92 90 88 90 89 86 80 77 77 76 73 74 76 78 81 86 93 98 94 82 74 72 72 74 76 79 82 86 90 93 95 95 96 97 97 97 96 95 94 96 97 98 96 95 94 90 84 78 78 83
92 92 90 90 90 92 92 93 94 95 96 96 97 97 98 97 96 96 98 99 99 99 99 97 92 87 88 91 94 96 97 98 99 99 98 96 92 90 88 89 88 86 83 83 86 86 80 74 73 76 80 86 93 98 98 88 78 71 69 72 75 78 80 84 88 91 93 93 94 95 95 94 93 92 92 94 96 98 97 95 94 90 86 77 76 81
92 92 91 90 91 91 91 92 93 95 95 96 96 96 96 93 92 94 99 99 99 99 100 99 96 92 87 87 90 93 95 96 98 99 98 96 92 88 86 86 85 82 77 82 90 94 90 81 76 76 78 85 92 98 98 92 83 74 69 70 73 76 78 82 85 88 90 90 91 92 92 90 89 88 89 92 94 97 98 96 94 90 87 78 76 80
91 92 92 92 92 92 91 90 92 94 95 96 96 96 95 92 91 92 97 99 99 100 100 100 99 96 91 87 88 90 93 94 96 97 98 96 92 86 82 82 81 77 69 74 86 95 96 90 84 81 80 87 94 99 99 95 88 80 73 70 71 73 76 79 82 85 87 88 88 88 88 86 85 85 86 88 92 95 98 96 94 91 89 79 76 80
91 91 92 92 92 92 92 90 92 93 95 95 95 96 95 94 93 93 95 97 99 99 100 99 99 98 96 90 88 89 92 93 94 96 97 95 91 85 79 78 78 76 64 68 79 92 97 94 91 88 88 92 96 99 99 98 94 88 80 76 73 73 75 77 80 82 84 85 86 86 85 83 82 82 84 86 88 92 95 96 95 93 92 81 77 81
91 91 91 92 92 92 92 90 91 92 93 93 94 94 96 94 95 95 95 96 97 98 99 98 97 96 96 94 92 91 92 93 93 94 95 94 92 87 80 76 76 74 65 66 76 87 94 95 94 94 94 96 97 98 99 99 98 95 90 85 83 81 78 77 78 80 82 83 84 83 82 80 80 80 82 84 86 88 93 96 96 96 93 84 80 82
90 90 91 91 92 92 92 92 91 90 91 90 90 92 93 93 93 94 95 96 97 98 98 97 96 96 96 98 97 95 93 93 92 92 92 92 91 88 83 78 76 73 68 66 73 83 90 94 95 96 97 96 97 97 98 99 99 98 96 93 93 92 88 80 78 79 82 82 82 81 80 78 77 78 80 82 83 85 90 94 96 97 95 88 83 84
90 90 90 90 91 91 92 91 90 90 90 90 90 90 92 92 92 92 93 96 97 97 96 95 96 97 98 98 98 97 94 92 91 90 90 90 90 89 86 80 75 71 67 66 72 79 85 90 93 96 97 96 96 95 96 98 99 99 98 96 96 98 96 86 81 81 84 84 82 80 78 76 75 76 79 79 80 82 87 92 96 96 95 90 88 87
90 90 90 90 90 90 90 90 90 90 90 90 90 90 92 92 92 90 90 92 92 93 94 96 97 99 100 99 98 98 95 92 90 90 90 89 89 88 88 83 76 70 64 65 69 74 76 80 85 90 95 96 94 93 93 96 98 98 98 96 97 98 98 90 87 88 90 88 84 80 76 74 74 75 77 78 78 79 83 90 94 95 95 93 92 92
90 90 90 90 90 90 90 90 90 90 90 90 90 90 92 92 92 90 90 90 89 88 90 94 97 99 99 99 99 98 96 93 92 91 90 87 87 88 86 86 82 76 68 66 67 69 69 70 74 80 87 92 92 90 89 94 96 97 98 96 96 96 97 91 91 94 96 93 88 82 76 73 73 74 76 76 76 77 80 87 92 94 94 95 96 96
90 90 90 90 90 90 90 90 90 89 88 89 90 90 92 92 92 92 90 88 86 86 86 90 96 100 100 99 99 98 96 94 93 92 90 88 88 89 87 87 87 86 83 73 68 66 63 62 64 70 77 84 86 87 86 88 91 94 96 96 96 96 97 90 92 96 99 96 91 84 78 75 74 76 76 76 76 77 80 86 90 94 95 96 97 97
89 90 90 90 90 90 90 90 90 89 88 90 90 91 92 92 92 92 90 88 86 84 84 87 92 97 97 97 98 99 98 95 94 93 91 90 92 93 92 90 90 91 94 86 76 66 59 55 57 63 72 79 83 84 81 81 83 87 95 96 96 97 98 92 93 96 99 98 94 89 82 79 78 78 77 76 77 79 82 86 90 94 96 97 97 96
89 89 90 90 90 90 90 90 90 90 90 90 90 91 92 92 92 92 90 89 88 86 84 84 87 90 90 90 94 98 99 95 93 92 90 90 93 97 96 94 93 94 96 95 86 72 57 52 53 60 71 80 84 82 76 73 73 77 90 95 96 96 100 94 95 99 99 98 97 94 90 86 84 82 80 79 80 82 85 88 91 94 96 98 97 96
89 89 89 89 89 89 90 90 90 90 90 90 90 90 91 92 92 90 90 89 88 87 86 83 82 83 84 84 88 94 99 95 91 88 88 87 90 94 96 96 96 97 97 99 95 84 65 57 56 61 72 82 84 82 74 68 66 68 78 90 94 96 98 96 96 98 99 98 98 98 96 94 90 87 83 83 85 87 89 90 93 96 98 98 98 98
89 89 89 89 89 89 89 90 90 90 90 90 90 90 91 91 90 90 89 89 88 87 86 83 80 79 81 84 88 92 97 96 92 88 87 85 86 89 92 93 95 96 98 98 99 96 86 72 67 68 76 83 84 80 72 66 62 62 65 80 90 95 94 98 99 99 99 99 99 100 100 99 96 92 88 88 90 92 93 94 96 97 98 98 98 98
88 89 89 89 89 89 89 89 89 89 90 90 90 90 90 90 90 90 88 88 87 85 84 82 80 78 78 83 87 90 94 96 95 92 90 85 84 84 87 88 90 92 95 97 98 99 98 91 85 80 79 81 80 76 70 64 60 58 58 69 83 92 92 97 99 100 100 100 100 100 100 100 99 96 92 92 94 96 96 96 97 98 98 98 98 97
88 88 89 89 89 89 89 89 90 90 90 90 90 90 90 90 90 90 89 87 86 84 82 79 77 76 76 80 85 89 92 94 94 92 89 85 84 84 85 84 86 88 90 93 96 98 99 98 96 92 83 80 76 72 66 62 60 58 55 60 72 85 95 96 98 100 100 100 100 100 100 100 100 98 96 96 97 98 98 98 98 98 98 98 97 96
89 89 89 89 89 89 89 89 90 90 90 90 90 89 90 90 90 88 88 86 84 82 79 77 76 76 76 78 85 90 94 94 93 91 87 84 84 84 83 82 82 82 84 88 92 95 98 98 98 96 89 82 75 68 60 58 59 58 56 55 60 73 93 96 98 100 100 100 100 100 100 100 100 99 98 97 98 99 98 98 98 97 97 97 96 94
89 89 89 89 89 89 89 89 90 90 90 90 89 89 90 90 90 88 86 84 82 81 79 77 75 74 74 76 84 92 98 97 96 95 93 94 90 84 81 79 78 78 80 83 88 92 96 97 97 96 93 86 78 69 58 56 56 58 56 53 54 60 78 90 96 99 100 100 100 100 100 100 100 100 100 97 97 98 99 98 98 97 96 96 94 93
90 90 90 90 90 90 90 90 90 90 90 90 89 89 89 89 89 88 86 84 82 80 79 76 74 74 74 77 85 93 98 99 100 100 99 99 93 86 80 77 76 76 77 80 84 89 93 96 97 96 94 86 79 72 64 57 55 56 56 53 51 52 60 76 88 96 100 100 100 100 100 100 100 100 100 98 98 97 98 98 98 97 96 95 94 94
89 90 90 90 90 90 90 90 91 91 90 90 90 89 90 89 89 88 87 84 82 80 78 76 74 74 76 81 89 96 99 100 100 99 98 96 91 86 83 80 77 76 76 77 80 85 90 94 96 96 94 84 76 71 67 60 57 56 54 53 50 49 48 61 74 86 96 99 100 100 100 100 100 100 100 100 99 98 98 98 97 96 96 95 95 96
88 89 89 89 90 90 90 90 90 91 91 90 90 90 90 90 90 89 88 85 83 80 78 76 76 76 77 83 91 98 99 100 100 99 97 96 92 90 89 86 81 77 76 76 78 83 89 93 96 96 93 83 74 67 63 60 58 56 54 52 50 48 45 49 58 71 86 96 99 100 100 100 100 100 100 100 100 100 99 98 97 96 94 94 95 96
88 88 88 88 88 89 90 90 90 90 90 90 90 90 90 90 90 90 89 86 84 81 79 78 77 77 77 81 89 96 100 100 100 100 98 97 94 93 95 92 86 80 78 77 78 82 87 91 94 95 93 84 76 67 61 57 55 53 52 50 50 48 46 44 48 58 72 89 97 100 100 99 99 100 100 100 100 100 100 99 98 96 93 92 93 96
89 89 88 88 88 89 89 90 90 90 90 90 90 90 90 90 90 89 89 88 86 83 80 79 78 78 78 80 88 95 100 100 100 100 100 98 96 96 98 96 92 88 84 81 80 81 84 89 92 94 94 87 78 71 66 60 55 51 50 50 50 49 47 43 44 49 60 80 93 99 100 99 99 99 99 100 100 100 100 100 99 97 93 89 90 92
89 89 89 88 88 88 89 90 90 90 90 90 90 90 90 90 90 89 88 88 86 85 84 82 80 79 80 83 90 96 98 100 100 100 100 99 98 98 99 99 97 94 90 87 86 86 87 87 90 92 94 90 83 76 72 68 61 55 52 51 51 50 48 45 43 46 54 72 88 99 100 99 99 99 99 99 99 100 100 100 100 98 94 88 86 89
89 89 88 88 88 88 88 88 89 89 89 89 90 90 90 90 90 90 89 88 87 87 87 84 82 80 81 84 90 95 97 99 100 100 100 99 99 99 100 100 99 97 92 90 90 92 95 92 90 90 93 92 88 83 79 76 70 63 57 54 53 51 50 46 44 45 53 68 85 98 100 100 99 99 99 99 99 99 100 100 100 99 96 88 84 85
89 89 88 88 88 88 88 87 87 87 87 87 88 89 90 90 90 90 89 88 88 88 88 86 84 81 80 82 85 90 95 98 100 100 100 99 99 100 100 100 100 98 93 90 89 92 96 98 94 90 90 94 92 90 88 86 80 72 64 59 55 52 50 47 44 45 54 69 85 97 100 100 100 100 100 99 99 100 100 100 100 99 98 90 84 83
88 88 87 87 87 87 87 86 86 86 86 86 87 88 89 90 90 90 89 89 89 89 88 88 86 83 80 80 81 84 92 98 99 100 100 99 100 100 100 100 100 99 97 92 90 92 96 99 97 92 89 94 96 96 95 93 88 80 72 64 58 54 51 47 45 47 56 75 90 98 100 100 100 100 100 100 100 100 100 100 100 100 99 92 85 82
86 86 85 85 85 85 85 85 85 86 86 87 88 88 89 90 90 90 90 89 89 89 89 89 87 84 82 80 79 81 88 94 98 99 99 99 99 100 100 100 100 99 99 94 93 96 98 99 99 95 88 94 98 99 99 98 95 90 82 70 61 55 52 48 46 48 60 82 94 100 100 100 100 100 100 100 100 100 100 100 100 100 100 96 90 86
84 84 84 84 83 83 83 84 84 85 86 87 88 89 90 90 91 91 90 90 90 90 90 89 88 86 83 80 78 80 84 91 96 98 97 98 99 100 100 100 99 99 98 95 95 97 100 100 100 97 90 94 97 100 100 100 99 96 90 79 67 58 54 50 47 50 63 86 96 100 100 100 100 100 100 100 100 100 100 100 100 100 100 99 97 94
85 85 84 84 84 84 84 85 85 86 87 87 88 88 90 90 90 91 91 90 90 90 90 90 89 88 85 81 78 78 82 89 93 96 96 97 98 99 100 100 99 99 98 97 96 97 100 100 100 98 93 94 97 100 100 100 100 99 97 89 76 64 61 56 52 54 66 88 98 100 100 100 100 100 100 100 100 100 100 100 100 100 100 100 99 98
86 86 85 85 86 86 86 87 87 87 87 87 88 88 89 90 90 90 91 91 91 90 90 90 90 90 89 84 80 78 78 85 91 95 96 96 98 99 100 100 99 99 99 98 97 98 100 100 100 98 94 96 99 100 100 100 100 100 100 95 85 74 70 66 62 62 72 89 97 100 100 100 100 100 100 100 100 100 100 100 100 100 100 100 100 99
87 86 86 87 87 87 88 88 88 88 88 88 88 89 90 90 90 90 90 91 91 91 91 91 92 91 90 88 84 80 78 82 88 92 95 96 97 98 99 99 99 99 99 98 98 98 99 100 100 98 94 94 97 100 100 100 100 100 100 99 94 89 82 80 77 76 81 93 98 100 100 100 100 100 100 100 100 100 100 100 100 100 100 100 100 100
87 88 88 88 88 88 88 88 88 89 89 89 89 89 90 90 90 90 91 92 92 92 92 92 92 92 92 90 88 84 81 81 84 89 94 95 96 98 99 99 100 100 99 99 99 99 100 100 100 98 95 91 95 100 100 100 100 100 100 100 99 98 97 96 94 92 93 98 100 100 100 100 100 100 100 100 100 100 100 99 100 100 99 98 99 99
88 88 88 89 88 88 88 89 89 89 89 89 89 90 90 90 90 91 92 92 92 92 93 93 93 93 94 93 92 89 85 81 81 85 90 94 96 97 99 99 99 100 100 100 100 100 100 100 100 99 97 92 94 98 100 100 100 100 100 100 100 100 100 100 100 99 99 100 100 100 100 100 100 100 100 100 100 100 100 99 99 100 100 98 98 98
88 88 88 88 88 88 89 89 88 88 89 89 89 90 90 90 91 92 92 92 92 92 92 93 93 94 94 94 94 93 90 84 82 83 87 92 94 97 98 99 99 100 100 100 100 100 100 100 100 100 99 98 98 99 100 100 100 100 100 100 100 100 100 100 100 100 100 100 100 100 100 100 100 100 100 100 100 100 100 100 100 100 100 99 99 98
88 89 89 88 88 88 88 88 88 88 89 89 90 90 90 90 90 92 92 92 92 93 93 93 93 94 94 94 94 94 93 89 85 83 85 89 93 96 98 99 99 99 100 100 100 100 100 100 100 100 100 100 100 100 100 100 100 100 100 99 99 100 100 100 100 100 100 100 100 100 100 100 100 100 100 100 100 100 100 99 100 100 100 100 99 98
88 89 88 88 88 87 87 88 88 88 89 89 90 90 90 90 90 92 92 92 92 93 93 93 94 94 94 94 95 95 94 93 89 85 85 88 92 96 97 98 98 99 100 99 100 100 100 100 99 100 100 100 100 100 100 100 100 100 100 99 99 100 100 100 100 100 100 100 100 100 100 100 100 100 100 100 100 100 100 100 100 100 100 100 100 100
86 87 87 87 87 87 87 88 88 89 89 90 90 90 90 90 91 92 92 92 92 93 93 94 94 94 94 95 95 95 96 95 93 90 86 89 92 96 97 97 98 99 100 100 100 100 100 100 99 99 99 100 100 100 100 100 100 100 100 100 100 100 100 100 100 100 100 100 100 100 100 100 99 99 100 100 99 99 99 99 99 100 99 100 99 99
84 85 86 86 87 88 88 89 89 89 89 90 90 90 90 90 91 92 92 92 92 93 93 94 94 94 94 95 95 95 96 96 96 95 92 92 94 96 98 97 97 98 99 100 100 100 100 100 100 99 99 99 100 100 100 100 100 100 100 100 100 100 100 100 100 100 100 100 100 100 100 100 100 100 100 100 100 100 99 99 100 100 99 99 99 99
83 85 86 86 87 88 88 88 89 89 89 90 90 90 90 90 91 92 92 92 92 93 93 94 94 94 94 95 95 95 96 96 96 97 98 96 97 98 99 97 97 98 99 100 100 100 100 99 99 99 100 99 100 100 100 100 100 100 100 100 100 100 100 100 100 100 100 100 100 100 100 100 100 100 100 100 100 100 100 100 100 99 100 100 99 99
82 84 86 86 87 87 87 88 88 89 89 90 90 90 90 90 91 92 92 92 92 92 93 93 94 94 94 94 95 95 96 96 96 97 98 98 98 98 99 97 97 98 99 100 100 100 100 99 99 99 99 100 100 100 100 100 100 100 100 100 100 100 100 100 100 100 100 100 100 100 100 100 100 100 99 100 100 100 100 100 100 100 100 100 100 100
79 84 86 86 86 87 87 88 88 89 89 90 90 90 90 90 91 92 92 92 92 92 92 93 94 94 94 94 94 95 95 95 96 96 97 98 98 98 98 97 98 98 99 100 100 100 100 99 98 98 99 100 100 100 100 100 100 100 100 100 100 100 100 100 100 100 100 100 100 100 100 100 100 99 98 99 100 100 100 100 100 100 100 100 100 100
74 80 84 85 86 87 87 87 88 89 89 90 90 90 90 91 91 92 92 92 92 92 92 92 93 93 94 94 94 94 94 95 95 95 96 97 97 96 96 96 97 98 98 100 100 100 100 100 99 99 99 99 99 99 99 99 100 100 100 100 100 100 100 100 100 100 100 100 100 100 100 100 100 99 98 99 100 100 100 100 100 100 100 100 100 100
66 74 80 83 85 86 87 87 88 88 88 89 90 90 90 90 91 92 92 92 92 92 92 92 92 93 93 94 94 94 94 94 94 95 95 96 96 96 96 96 96 97 98 99 100 100 100 100 100 99 99 98 98 98 97 98 99 99 100 100 100 100 100 100 100 100 100 100 100 100 100 100 100 100 100 100 100 100 100 100 100 100 100 100 100 100
Wind_Speed
24 26 26 25 23 20 17 15 14 12 7 6 8 9 7 4 3 3 3 4 6 6 5 7 10 11 13 16 17 18 18 18 19 21 21 23 26 27 26 24 22 21 18 14 13 15 19 21 22 23 23 24 25 26 27 28 29 29 29 29 29 28 28 26 25 24 23 24 24 24 24 24 25 27 28 28 29 30 31 33 34 33 33 34 35 36
25 26 25 24 21 19 17 16 15 14 11 8 7 7 6 5 4 3 3 4 6 8 9 10 12 12 13 15 17 18 18 17 18 19 20 22 24 26 26 25 23 22 21 17 14 14 16 20 22 23 22 24 25 26 27 28 28 29 29 29 29 29 28 27 25 24 24 25 27 28 28 27 26 26 27 27 27 28 30 33 35 34 33 33 33 34
25 24 23 22 20 18 18 18 17 15 13 10 7 5 4 3 3 3 3 4 6 8 11 13 14 14 13 14 17 18 18 17 17 18 19 20 22 24 26 25 23 22 22 20 17 15 15 18 21 22 21 21 23 25 27 28 28 28 29 29 30 30 29 28 26 24 24 25 27 28 29 28 28 28 29 29 27 27 30 34 36 36 35 33 33 32
24 22 22 21 19 16 16 16 16 14 11 8 6 4 3 2 2 2 3 3 5 7 10 13 15 15 14 14 15 18 18 17 17 18 20 20 21 23 25 25 23 22 21 21 20 18 17 18 21 22 20 18 21 24 26 27 28 29 29 29 30 30 30 29 27 25 24 25 26 28 29 29 29 29 30 30 29 28 30 34 36 37 38 36 34 33
21 20 20 20 18 16 14 13 13 11 9 8 7 6 5 4 3 2 3 3 5 7 9 12 14 16 15 14 14 16 17 17 17 18 20 21 22 23 24 24 23 21 19 20 21 21 19 19 20 21 21 19 20 23 25 27 28 29 29 29 30 30 30 29 28 27 26 26 27 28 28 28 29 29 31 32 32 32 32 34 35 36 37 37 37 35
19 18 19 18 17 15 13 11 9 9 8 9 9 9 8 7 6 4 4 4 5 7 8 11 14 15 15 14 13 14 16 16 16 17 19 21 23 24 24 24 23 21 18 18 20 22 22 21 20 21 22 21 21 23 25 26 28 29 29 30 30 31 31 31 30 29 27 27 27 27 27 27 27 28 30 32 34 35 36 36 35 35 35 36 36 35
18 17 17 16 14 12 10 9 7 5 6 6 7 8 8 8 7 5 5 5 6 7 8 9 12 15 16 16 14 14 14 15 16 17 19 21 23 24 25 25 24 21 19 18 19 21 23 22 21 21 22 22 23 24 25 26 27 29 30 30 30 31 31 32 31 30 29 28 28 27 26 26 25 26 28 31 35 37 38 38 37 35 35 35 35 35
17 16 14 12 11 10 9 7 5 3 2 3 4 5 5 6 6 6 6 6 8 9 9 10 11 14 16 18 17 15 14 15 16 17 19 21 23 25 26 26 25 23 21 19 19 20 21 22 21 21 22 23 24 25 26 26 27 29 30 31 31 31 32 32 32 32 31 30 29 27 25 24 23 24 26 29 33 37 39 39 38 37 36 34 34 35
15 15 12 10 9 10 9 7 5 4 3 2 1 2 3 4 5 6 7 8 9 10 11 12 12 13 16 19 19 17 15 14 15 16 18 21 23 25 26 27 27 25 22 20 19 19 20 21 21 21 22 24 25 26 27 27 28 29 30 31 31 31 32 32 33 33 32 31 30 28 26 23 22 22 24 27 31 35 39 40 39 38 37 35 35 36
15 14 12 9 9 9 10 10 8 6 6 5 4 4 4 5 5 5 7 9 10 10 11 12 12 12 13 17 19 19 16 15 14 15 17 20 23 25 27 28 28 27 24 21 19 19 21 22 22 23 24 25 27 27 27 27 28 29 30 31 31 32 32 32 33 33 33 32 31 29 27 24 23 22 23 26 29 34 38 40 40 39 38 36 36 37
15 13 12 10 9 9 10 11 11 9 7 6 5 4 5 6 5 5 6 8 9 9 9 10 10 9 10 13 16 19 18 16 15 15 16 19 23 25 27 28 29 29 26 22 19 19 21 22 24 25 26 28 28 27 26 26 27 28 29 30 30 31 31 32 32 33 33 33 32 30 28 26 24 24 24 25 28 32 36 39 41 40 39 38 38 38
15 14 13 11 11 11 12 12 12 11 10 8 6 5 5 6 6 5 4 5 7 8 8 8 8 8 7 8 11 15 17 17 16 14 15 18 21 24 27 28 30 30 28 24 21 19 20 21 23 25 27 28 28 27 26 25 26 27 28 28 28 29 30 31 32 33 33 33 32 31 30 28 26 25 25 26 28 31 35 38 40 41 40 40 40 40
14 14 14 12 11 11 12 13 13 12 11 10 8 7 7 7 7 6 5 4 5 6 7 7 7 6 5 5 7 11 15 17 17 15 14 16 19 22 26 28 30 31 30 26 23 21 21 21 21 23 25 26 27 26 25 25 25 26 27 27 27 27 28 29 31 32 33 33 33 32 31 30 28 27 26 27 28 30 33 37 39 41 41 41 41 42
15 14 14 14 13 12 12 12 13 13 12 10 9 9 9 8 8 7 6 5 4 4 4 5 7 8 8 7 7 10 14 17 18 16 14 14 17 20 24 28 31 32 32 29 26 23 22 21 21 21 22 23 24 24 24 25 25 25 26 27 27 26 27 28 30 31 32 32 32 32 32 31 30 28 27 27 28 30 33 35 38 39 41 41 42 42
14 14 14 14 14 13 12 12 12 12 11 10 9 9 9 8 7 5 5 5 4 3 3 6 10 11 10 7 7 10 13 16 17 16 14 13 14 17 22 26 30 33 33 32 29 26 24 23 22 22 21 22 23 23 23 24 24 25 25 26 26 25 26 28 29 30 31 31 32 32 33 32 31 29 28 27 28 30 33 35 37 38 40 41 42 43
14 13 14 14 14 13 13 13 13 12 11 9 8 8 8 8 7 5 5 5 5 4 3 7 10 11 10 9 9 10 12 15 16 16 14 12 11 14 19 23 27 31 34 33 31 29 27 25 23 23 23 23 24 24 24 24 25 25 25 26 26 26 25 28 29 30 30 30 31 32 32 32 31 29 28 27 28 30 33 35 37 38 40 41 42 43
12 12 13 14 14 14 13 14 14 13 11 9 8 8 9 10 9 7 6 5 5 4 4 7 10 12 10 9 9 11 13 15 16 16 15 12 10 11 15 19 23 28 33 34 33 31 29 27 25 24 24 25 26 26 26 25 25 25 24 24 25 26 27 28 29 30 30 30 31 31 32 31 31 29 27 27 28 30 33 36 38 39 41 42 42 43
11 11 13 14 14 14 14 14 15 13 11 10 9 9 10 11 10 9 7 6 4 3 4 7 10 12 13 11 9 10 14 15 16 17 16 14 11 10 12 16 19 24 29 33 34 34 31 29 27 26 26 26 27 28 27 26 25 25 24 24 24 26 28 28 29 29 29 29 30 31 31 31 30 28 27 27 28 31 34 36 39 40 41 42 43 43
10 10 11 13 13 13 14 14 14 14 13 12 12 12 13 13 11 10 8 7 5 4 4 6 8 11 12 11 9 9 13 15 16 18 18 17 13 11 11 13 16 20 24 30 34 35 34 32 30 28 27 27 28 28 28 26 25 24 24 24 24 26 28 28 29 29 27 29 29 30 30 30 29 28 27 28 29 32 35 37 39 41 42 42 42 41
10 10 10 11 12 13 13 13 13 13 12 12 13 14 15 14 13 11 10 9 7 6 5 6 7 9 11 9 8 9 12 14 16 18 19 19 16 12 11 12 14 17 20 25 31 35 35 34 32 30 29 29 29 29 28 27 25 24 24 24 25 26 27 28 29 28 28 28 29 29 29 28 28 27 28 29 31 34 36 39 40 41 42 41 41 40
11 10 10 10 11 12 13 13 13 11 11 11 13 14 15 15 14 13 11 10 9 7 6 6 6 7 9 8 7 8 12 13 15 17 19 20 19 15 12 11 13 14 16 20 26 32 34 35 35 34 32 32 31 30 28 27 25 25 24 24 25 26 27 28 28 28 28 29 29 28 28 27 27 28 29 31 34 36 38 40 41 42 42 41 40 38
11 11 11 12 11 11 13 14 13 12 11 11 13 15 16 16 15 14 12 11 10 9 8 6 5 6 7 7 7 8 11 12 13 14 17 19 20 19 15 13 12 12 13 15 20 27 31 34 36 36 35 34 32 31 29 27 26 25 25 24 25 26 28 28 28 28 28 29 29 28 28 27 28 28 30 33 36 38 40 41 41 41 41 40 39 38
12 12 13 13 12 12 13 14 14 13 11 12 13 14 17 16 15 14 12 11 10 10 9 8 7 6 7 7 7 8 10 11 11 11 13 17 19 20 18 15 13 12 12 12 15 21 27 31 34 36 36 35 34 31 29 27 27 26 25 24 25 27 29 29 28 27 28 30 29 28 28 28 28 29 31 34 37 40 41 41 41 40 39 38 38 37
13 13 13 13 12 12 13 14 13 12 11 11 12 14 15 14 13 11 10 10 10 10 10 9 7 5 4 5 6 7 9 10 10 10 10 12 15 18 19 18 16 14 11 10 11 15 22 27 31 33 35 36 34 31 28 27 27 27 26 25 25 27 30 31 29 27 26 29 29 28 28 28 29 30 32 35 38 41 42 41 40 39 38 37 37 37
13 13 13 13 13 13 13 13 13 11 10 9 11 14 14 13 11 9 8 8 9 10 10 9 7 4 2 4 5 7 8 9 9 8 6 6 9 15 19 20 18 15 12 9 9 11 16 22 27 31 33 35 34 32 28 26 26 27 27 25 25 26 29 31 30 28 26 27 28 29 29 29 30 31 33 35 38 41 42 41 41 40 39 38 37 37
13 13 13 13 14 14 14 13 12 11 10 9 10 13 14 12 11 9 9 9 9 9 9 8 6 3 3 6 8 9 10 10 10 9 7 6 8 13 17 19 19 17 14 10 8 8 12 17 23 29 32 34 34 32 30 27 26 27 28 26 25 25 27 29 30 28 26 26 28 29 30 31 31 31 32 35 38 40 42 42 41 41 40 39 38 36
13 13 14 14 14 14 14 13 12 11 10 10 10 12 13 12 11 11 10 9 8 7 7 7 6 3 4 8 11 12 12 12 11 11 11 11 11 13 15 17 18 17 15 12 9 7 8 12 18 25 30 33 34 34 32 29 28 28 30 28 26 25 25 27 29 28 26 25 27 29 31 32 32 31 31 33 36 39 41 42 42 42 41 39 37 35
12 12 13 13 13 13 13 13 12 10 10 10 11 11 12 12 12 12 11 9 7 6 6 7 6 4 3 7 11 13 15 14 12 10 11 11 11 10 11 14 16 17 16 14 10 7 7 10 15 22 29 33 35 36 35 33 32 31 32 30 28 25 25 26 27 28 27 25 26 28 30 32 32 32 31 32 34 37 40 41 42 42 41 39 36 34
12 12 12 12 12 12 12 11 11 10 9 10 10 11 11 11 12 11 10 8 7 7 7 7 6 4 2 6 10 13 15 15 13 11 10 10 9 9 11 12 14 15 15 13 11 8 7 9 13 19 26 32 36 37 37 37 35 35 34 32 29 26 25 25 26 27 27 26 25 26 29 31 32 32 31 31 32 34 37 39 42 43 42 40 37 34
10 11 11 11 11 11 11 11 10 10 9 10 10 10 10 10 11 11 10 8 7 7 7 7 6 4 2 6 9 11 13 15 14 12 11 9 9 10 12 13 13 12 12 11 10 9 8 9 12 16 23 30 35 37 37 37 37 36 35 33 30 28 26 25 25 26 27 27 26 26 28 31 32 32 32 32 32 32 33 36 39 43 44 43 39 36
8 8 8 9 10 10 10 10 10 9 9 9 10 10 10 10 10 10 10 8 7 7 7 7 5 4 3 5 7 8 10 14 15 13 11 9 9 11 13 14 14 13 11 10 8 8 8 8 10 14 20 27 32 35 36 35 35 35 35 33 31 29 27 25 25 26 27 27 27 26 27 30 32 32 32 32 32 32 32 33 37 42 47 46 42 38
8 7 7 8 8 9 9 9 9 9 9 9 9 9 9 9 9 9 9 8 8 7 7 7 6 5 5 7 8 10 12 14 14 13 11 10 10 12 14 15 15 15 14 12 10 8 7 8 8 11 17 23 28 32 32 32 32 33 34 33 32 30 28 26 25 26 27 28 28 28 28 30 32 32 32 32 32 32 32 33 36 41 47 48 45 41
9 8 7 7 7 7 8 8 8 9 9 9 9 9 8 8 8 8 8 8 8 8 8 7 7 6 7 8 10 12 14 14 14 13 12 11 12 13 15 16 16 16 16 14 13 11 9 9 9 11 15 20 25 28 28 28 29 31 32 32 32 30 28 27 26 27 28 29 30 30 30 31 32 33 33 33 33 32 32 33 36 41 47 49 48 44
10 9 8 8 7 7 6 7 7 7 8 8 8 8 8 8 8 8 8 8 8 8 8 8 7 7 7 8 10 12 14 14 13 14 13 13 13 15 15 16 16 17 17 16 14 12 12 11 11 12 14 18 23 25 25 25 26 28 31 32 32 31 29 28 28 28 29 30 30 31 32 33 33 34 33 33 33 33 32 32 34 39 45 49 50 47
12 12 11 10 9 8 7 7 6 6 6 7 7 7 7 7 7 7 8 8 8 8 8 7 7 7 7 8 10 12 12 12 12 13 14 14 14 14 15 15 16 17 18 18 16 14 14 13 13 14 14 17 20 23 23 23 24 26 28 30 31 31 30 30 29 30 31 31 31 32 34 34 35 35 34 34 33 33 32 31 32 35 40 45 48 48
15 14 14 13 12 11 10 10 9 8 7 7 7 7 7 7 7 7 7 8 8 8 8 7 7 6 6 7 9 11 11 12 13 14 15 15 15 14 14 14 16 18 19 19 18 17 15 14 14 14 15 17 20 23 24 24 24 25 27 29 31 31 31 31 31 32 33 33 33 33 34 35 36 36 35 34 34 33 31 31 31 32 35 39 43 45
17 16 16 16 15 15 14 13 12 11 10 9 8 8 7 7 7 7 7 7 7 8 8 7 6 5 5 6 8 11 12 14 16 16 16 16 16 14 13 14 16 18 18 19 19 18 15 15 15 15 16 18 21 24 26 27 27 27 27 28 30 32 32 32 33 33 34 35 34 35 35 36 37 36 36 35 35 33 31 31 31 31 33 35 38 41
18 18 18 18 17 17 16 16 15 14 13 12 11 10 9 8 7 7 7 7 7 7 7 7 6 5 4 4 6 10 13 15 17 17 17 17 17 15 13 12 15 17 18 19 19 18 15 15 17 19 19 21 23 26 28 29 30 30 29 29 30 31 32 33 34 35 36 36 36 36 36 37 38 38 37 36 36 35 34 32 32 33 34 35 37 39
20 20 19 19 18 18 18 17 16 16 15 14 13 11 10 8 7 7 7 6 6 6 6 6 6 5 3 3 5 8 11 14 16 17 17 18 17 16 13 12 13 15 18 19 19 19 17 18 20 22 22 22 24 27 30 31 32 32 32 31 30 30 31 33 34 35 36 37 37 37 37 38 39 39 39 38 38 38 37 36 36 36 38 40 41 43
21 21 20 19 19 18 18 17 16 16 15 14 13 12 10 8 6 5 5 5 6 6 6 5 4 4 3 2 4 7 10 12 14 16 17 18 17 16 14 11 11 14 17 19 20 19 19 20 22 23 23 22 24 28 32 32 33 33 34 33 33 32 32 33 34 35 37 37 38 38 39 39 40 40 40 39 39 39 40 39 39 40 41 44 47 49
23 22 21 20 19 18 17 17 16 16 15 14 13 12 10 9 7 5 4 4 4 4 4 4 4 3 2 2 3 6 9 12 14 16 17 18 17 16 14 11 11 13 16 19 20 19 20 21 23 25 25 24 25 29 33 34 34 35 35 36 36 36 35 35 35 36 37 38 38 39 40 40 41 41 41 41 40 40 41 41 43 43 44 44 46 49
23 23 22 21 20 19 18 17 16 15 14 13 13 12 12 11 10 8 6 5 4 4 5 4 4 3 2 1 2 4 7 11 14 16 18 18 17 16 15 12 12 13 16 18 19 19 20 23 25 26 27 26 27 30 34 35 36 37 38 39 39 39 39 38 37 38 38 39 39 40 41 42 43 43 43 43 43 43 42 43 44 46 47 47 46 46
24 24 23 22 21 20 19 17 16 15 14 14 13 13 13 12 11 10 9 8 7 7 6 6 5 4 3 1 1 3 4 8 12 15 17 17 17 16 15 14 13 14 16 16 17 18 22 25 27 28 28 28 30 33 36 37 39 40 40 41 41 41 42 42 42 41 41 41 41 42 44 45 45 46 46 46 46 46 46 47 47 48 49 49 48 47
25 24 23 23 22 20 19 18 17 17 16 15 15 14 13 12 11 10 10 9 8 8 7 6 5 4 3 2 3 3 3 5 8 11 14 16 17 16 16 15 15 15 16 15 15 18 23 26 28 29 29 30 32 35 37 39 40 41 42 42 42 43 44 46 46 46 45 44 45 45 46 47 47 48 48 48 48 48 49 50 50 50 49 49 48 47
25 25 24 24 23 22 21 19 19 18 18 17 16 15 14 13 11 11 10 9 9 8 7 6 4 2 1 2 4 4 4 3 4 7 10 13 14 15 16 17 16 16 16 17 18 21 25 28 29 30 31 32 35 37 38 39 41 42 43 44 44 45 45 47 48 48 47 47 48 48 48 48 49 49 49 50 50 51 51 51 51 50 50 49 48 47
26 26 26 25 24 23 22 21 20 19 19 18 17 16 15 13 12 11 11 10 9 8 7 5 3 1 2 3 4 5 6 6 6 6 7 9 11 13 16 18 18 17 16 18 20 24 27 30 31 32 33 35 36 37 38 39 41 43 45 46 47 48 47 48 48 49 49 49 50 51 50 50 50 50 51 52 52 53 53 52 51 51 50 49 48 47
27 27 27 27 26 25 24 23 22 21 20 19 18 17 16 14 13 12 11 10 9 8 6 4 2 1 3 4 5 7 8 9 9 9 9 9 10 12 15 18 19 17 17 20 23 26 28 30 32 33 35 37 37 37 38 39 41 43 45 47 49 50 50 51 51 51 50 50 51 52 52 52 52 52 53 53 54 54 54 54 53 52 51 51 50 49
28 29 29 28 28 27 26 25 24 22 20 19 18 17 16 15 14 13 12 11 10 8 6 4 2 2 4 5 7 8 10 12 12 12 13 12 12 13 15 18 18 18 19 22 24 27 29 31 33 35 36 38 38 38 38 39 41 43 46 48 50 52 53 53 53 53 52 52 52 53 53 53 54 54 54 55 55 55 55 56 55 53 53 52 52 52
29 29 29 29 29 29 28 27 25 23 21 19 18 17 16 15 13 13 13 12 10 8 6 5 4 4 5 6 8 9 11 13 15 16 17 16 16 16 17 18 19 20 21 24 26 27 28 30 33 35 36 37 38 39 40 40 41 43 46 49 51 54 55 55 54 54 54 54 55 54 54 54 54 54 54 55 56 55 55 56 55 54 53 53 53 53
29 30 30 30 30 29 29 28 26 24 22 20 18 16 16 14 13 12 12 12 11 9 7 6 4 4 5 5 7 10 12 15 17 19 20 20 20 20 20 21 21 22 23 24 26 27 28 29 32 34 37 37 38 38 39 40 41 43 46 49 52 55 57 56 55 55 56 57 57 57 56 55 54 54 54 55 56 56 55 54 53 52 52 52 53 53
29 30 30 30 30 30 29 28 27 25 23 20 18 16 15 14 13 13 12 12 11 10 8 6 5 5 5 5 6 8 12 15 18 21 23 23 23 23 24 25 24 23 22 24 26 27 28 29 29 30 32 35 36 37 37 38 40 42 45 48 51 54 56 56 56 56 57 57 58 58 57 56 55 54 54 55 56 55 54 53 52 51 51 51 52 52
Wind_Direction
308 309 312 316 320 324 330 340 340 329 302 248 218 212 215 239 266 257 217 205 204 209 225 243 241 225 203 191 190 194 200 208 218 226 233 238 238 236 235 235 234 230 224 219 210 203 201 201 199 196 195 197 200 203 205 204 203 201 201 201 202 202 201 202 202 201 198 195 196 201 208 211 211 209 207 205 203 202 202 207 208 206 203 208 212 212
311 313 316 320 323 327 333 341 339 327 306 280 249 236 249 256 254 240 215 203 204 209 218 230 234 226 210 193 188 189 194 200 210 219 227 233 235 234 233 235 234 232 226 222 216 208 204 204 202 199 197 196 196 198 202 203 202 201 200 201 201 201 201 202 202 203 202 201 200 202 205 206 206 206 205 206 207 206 205 207 207 205 203 207 211 213
316 318 319 322 325 329 334 335 329 317 302 288 270 252 245 243 239 232 221 208 207 214 222 228 230 226 215 198 188 187 192 196 203 210 218 226 230 232 232 234 235 233 228 224 220 215 209 208 207 207 205 199 195 196 199 201 201 200 199 200 200 201 201 201 201 202 204 205 205 205 204 204 203 202 203 205 206 206 205 207 206 204 204 206 209 212
320 321 322 323 324 328 331 327 317 306 294 284 276 268 254 242 231 222 218 214 212 216 222 227 229 228 221 206 192 187 189 192 198 205 213 219 224 227 230 232 233 232 228 224 222 219 215 212 211 212 212 207 200 197 198 199 199 198 198 198 199 199 200 199 199 200 203 206 207 205 203 203 202 202 203 203 203 202 202 206 207 205 205 206 207 209
322 322 323 323 323 324 325 319 309 298 288 281 280 281 281 281 278 261 240 229 222 219 218 222 225 226 226 217 202 191 189 189 193 199 207 214 219 224 227 230 230 229 227 224 222 221 219 215 212 211 213 212 208 203 201 200 199 198 197 197 198 198 198 198 197 198 200 205 206 205 204 204 204 204 204 203 202 200 201 206 208 208 207 208 208 207
323 323 322 321 320 320 321 318 310 297 282 273 269 269 272 275 278 273 253 234 221 214 210 213 218 222 225 224 213 200 192 190 191 195 202 209 216 221 224 225 225 224 223 221 220 220 220 219 214 210 209 212 213 211 206 203 201 198 197 197 197 198 198 197 196 197 198 202 204 205 205 206 206 207 206 205 204 203 203 207 209 211 210 209 208 207
324 323 321 320 318 317 319 324 321 303 278 256 248 248 251 259 265 264 244 221 204 195 191 197 209 217 221 224 219 209 198 193 192 194 199 205 212 217 220 221 220 219 218 217 217 218 219 220 216 211 209 212 215 215 212 208 204 201 199 198 197 198 198 197 196 197 198 200 202 204 205 206 208 209 209 208 206 206 206 207 209 211 211 209 207 205
327 326 326 323 319 317 321 329 335 330 289 241 226 222 228 246 257 253 229 206 192 182 176 180 195 210 218 223 222 215 204 197 195 195 198 203 209 214 217 217 216 215 217 216 215 214 216 217 217 214 212 213 216 217 214 211 208 205 202 199 198 198 198 198 197 197 198 199 201 202 204 205 206 208 210 210 209 208 208 208 208 210 210 208 205 203
332 333 334 331 328 327 328 331 344 359 360 347 298 255 251 259 258 244 219 203 192 182 174 172 179 196 214 222 224 220 211 203 198 196 196 200 206 212 216 216 215 214 217 218 215 211 211 213 214 214 215 216 217 218 216 213 211 209 206 202 200 199 199 199 198 198 198 199 200 201 202 202 204 206 209 210 210 210 209 209 209 210 209 206 203 202
337 340 343 342 338 335 333 334 342 360 12 11 357 325 297 287 274 247 222 213 202 188 175 169 171 184 206 220 225 224 219 211 203 196 193 197 203 209 215 216 216 214 216 218 216 211 208 208 209 212 215 217 218 217 214 213 213 212 209 205 202 200 199 199 199 198 199 200 200 201 201 202 204 206 208 209 210 210 210 210 210 210 208 205 201 200
342 345 350 352 350 343 337 334 336 343 353 355 347 323 300 293 286 268 239 225 213 200 186 177 178 187 202 216 223 225 224 219 211 201 193 193 199 206 212 216 216 215 214 216 216 213 210 208 209 211 214 216 214 211 208 208 210 211 210 207 204 201 200 199 199 198 199 199 200 201 202 203 205 207 209 209 210 210 210 210 211 210 208 203 200 199
344 348 353 355 354 349 344 336 331 329 332 332 324 309 295 287 283 277 262 234 219 210 204 196 194 199 205 209 215 220 223 222 219 210 199 193 196 201 208 213 215 215 214 214 214 214 214 214 214 215 215 212 209 204 200 199 202 205 207 205 203 202 201 200 199 198 198 199 200 201 202 204 207 209 211 211 211 210 210 210 210 209 207 203 199 198
346 349 353 356 356 353 347 341 335 331 329 326 322 316 311 298 286 280 274 249 223 210 206 201 194 183 174 178 193 207 215 219 220 216 206 196 194 197 202 206 210 212 212 212 212 214 216 218 220 219 214 208 203 199 195 192 192 196 200 200 199 199 201 200 199 197 197 198 199 201 203 205 208 211 212 212 212 211 210 209 208 207 205 202 198 197
346 348 352 356 359 358 352 344 339 336 332 326 319 311 305 299 291 284 275 263 238 208 189 176 159 144 132 135 170 197 208 215 218 217 211 201 196 196 198 200 204 207 209 210 211 212 214 219 223 223 217 208 203 200 196 190 188 190 195 197 196 195 197 198 197 196 196 197 198 200 203 205 209 212 213 213 212 211 210 209 207 205 203 200 198 197
345 346 348 351 356 360 357 350 343 338 331 321 312 305 300 301 297 285 272 262 250 228 182 156 147 139 131 135 165 191 203 211 215 215 213 207 201 198 198 198 199 202 205 207 209 210 212 217 221 224 223 217 213 209 203 194 190 192 196 198 198 195 194 195 194 194 194 196 198 200 203 206 209 212 214 213 211 210 209 208 206 204 201 199 198 197
344 345 345 347 351 356 358 353 348 341 334 325 317 316 320 322 319 305 285 270 255 237 197 167 158 154 150 157 166 177 191 202 207 208 208 207 203 199 198 199 198 198 200 203 206 209 211 214 218 221 223 224 224 220 213 203 198 198 201 203 201 198 195 194 193 192 194 196 198 201 203 206 209 212 213 212 210 208 207 205 204 202 199 198 197 197
342 344 343 344 347 351 355 355 349 343 339 335 330 329 330 330 327 320 304 281 262 240 199 178 173 173 173 173 171 173 183 192 197 199 197 196 196 196 197 199 199 198 197 199 202 206 210 213 216 218 220 223 226 225 220 210 204 203 205 205 202 199 197 195 194 194 196 197 199 201 203 206 209 211 211 209 207 206 205 203 202 200 198 197 197 197
338 342 341 341 343 347 352 351 347 344 343 342 340 336 329 327 325 322 316 301 284 249 206 191 187 186 186 188 180 174 180 185 190 193 192 187 185 187 191 195 197 198 197 197 199 202 207 211 214 216 217 220 224 225 222 215 209 205 204 204 201 198 197 196 197 198 199 198 200 202 204 206 208 209 208 206 205 203 202 201 199 198 197 197 196 196
331 337 338 337 339 342 346 344 341 339 341 344 344 339 332 324 321 321 320 316 304 275 231 213 205 201 199 199 190 179 180 185 188 191 192 187 181 177 180 185 190 193 196 197 198 200 202 206 210 214 216 218 220 222 220 217 212 208 204 202 200 197 197 197 199 201 200 200 201 204 205 206 207 206 205 203 202 200 199 198 197 196 195 195 194 194
321 327 330 330 333 337 340 337 333 331 336 342 343 337 326 318 315 318 321 319 310 289 255 235 223 215 210 205 195 184 184 186 188 192 193 190 185 178 174 176 178 182 188 195 198 199 200 202 205 209 213 215 217 218 218 217 215 211 206 203 200 199 199 199 201 201 200 201 204 207 208 207 206 204 202 200 199 197 196 195 194 193 192 191 190 189
312 315 316 318 326 333 334 330 326 326 334 344 342 332 319 312 310 313 319 319 314 302 281 259 239 223 213 204 197 190 188 187 188 190 193 193 192 189 184 180 176 175 179 189 196 198 199 199 201 205 209 212 214 215 217 219 218 216 210 205 202 201 201 201 202 202 201 202 205 209 210 208 206 203 200 198 196 195 193 192 191 190 189 187 186 185
302 303 305 308 316 324 326 321 318 320 333 345 341 327 314 309 308 312 317 319 317 313 305 291 266 237 217 206 201 196 191 191 191 191 192 193 195 196 197 194 186 177 174 183 193 198 198 199 200 202 205 208 211 214 218 221 222 220 215 208 204 203 204 204 203 203 201 203 206 208 208 207 205 202 199 196 194 192 190 189 188 187 186 184 184 185
297 297 299 301 306 313 314 310 309 314 327 340 335 320 309 305 306 310 316 318 318 313 303 289 270 247 225 210 201 197 195 196 194 193 194 194 196 199 202 203 199 189 177 178 190 197 199 199 199 201 203 205 208 212 217 222 225 224 219 213 207 205 205 206 206 205 202 203 205 206 205 204 203 202 199 196 193 190 189 187 186 185 185 184 185 186
292 290 292 297 303 307 307 303 303 308 319 330 325 313 304 301 303 307 311 312 311 305 298 291 286 276 249 220 205 198 197 195 193 193 197 198 198 199 203 206 206 201 188 182 187 197 201 200 200 201 202 204 205 208 213 219 225 226 223 217 211 208 206 207 209 208 205 203 204 204 202 201 200 200 198 196 193 190 188 187 186 185 185 185 186 188
294 291 293 296 297 297 296 293 293 297 304 314 314 307 300 300 303 308 309 309 305 301 300 305 312 314 247 208 198 192 193 190 186 184 185 196 198 198 201 206 209 207 201 192 190 196 200 201 201 201 201 203 203 204 207 214 221 226 225 220 215 211 209 209 210 211 208 205 203 202 200 199 198 197 197 196 194 192 190 188 187 187 186 186 188 190
298 294 291 291 290 289 288 289 289 288 285 289 299 301 298 300 305 311 314 312 306 301 301 303 304 286 195 180 178 180 185 184 181 174 166 186 194 193 196 202 207 209 207 202 195 195 200 202 202 201 200 201 202 202 202 207 215 223 226 222 217 213 212 212 213 212 210 206 203 202 200 198 197 196 195 195 196 195 193 192 190 189 188 188 188 191
302 297 293 292 291 292 292 294 294 290 278 273 280 291 296 300 305 309 311 314 309 301 301 303 300 271 195 176 173 176 183 187 188 183 177 184 187 186 188 196 203 207 209 209 207 205 204 203 202 201 199 200 200 200 200 201 208 218 223 223 219 215 213 213 214 215 212 207 203 201 200 198 197 196 194 194 195 196 197 196 194 192 191 189 190 192
310 305 302 300 299 298 299 300 300 296 285 275 277 286 297 302 305 307 311 316 311 302 300 300 302 292 203 176 174 179 185 190 194 193 189 190 190 183 176 186 197 204 210 215 218 219 214 207 203 201 200 199 200 200 199 199 204 211 218 221 220 217 214 213 214 215 214 209 204 201 199 198 198 197 195 193 193 195 197 198 198 196 193 192 192 194
316 314 311 308 306 304 303 303 302 299 294 288 288 294 304 308 308 308 312 315 314 308 301 295 296 295 233 181 181 185 190 194 197 198 197 200 195 179 165 173 188 201 210 219 224 227 221 208 202 201 200 200 201 201 200 198 200 205 212 216 218 217 215 213 213 214 213 210 205 200 198 198 197 197 196 194 192 191 193 196 198 198 196 195 195 196
319 317 314 312 310 308 307 305 304 303 300 298 299 303 310 313 311 309 314 317 315 309 301 295 293 287 233 186 183 189 196 197 197 198 201 204 195 175 161 163 172 187 202 215 225 231 228 214 203 199 200 201 203 203 202 199 199 202 207 211 214 215 214 213 211 211 211 209 205 201 198 197 197 196 195 193 191 189 189 191 194 197 197 197 197 196
327 322 317 316 315 315 313 313 311 309 306 304 303 304 308 310 309 311 317 319 315 305 296 293 289 271 220 197 184 183 192 195 196 199 206 203 193 177 162 158 158 166 182 197 213 228 236 227 209 199 199 201 204 205 205 202 200 201 204 207 210 211 212 210 209 207 207 207 205 202 198 196 196 196 195 194 192 190 188 188 191 194 196 197 197 196
349 343 337 333 331 328 325 322 320 316 312 308 306 304 305 306 308 310 313 317 314 305 295 291 284 263 231 218 203 191 188 190 194 201 208 201 193 182 168 158 153 157 173 186 197 210 225 229 216 202 199 200 203 205 206 205 202 201 202 205 207 208 208 207 205 204 203 203 202 201 199 197 196 196 196 195 193 192 190 189 190 193 195 196 196 195
10 7 3 356 350 344 338 333 328 322 317 313 310 307 304 305 307 311 314 316 314 308 301 296 286 269 247 230 216 203 192 190 194 200 203 197 192 184 172 160 154 158 169 181 192 201 209 215 213 207 202 199 200 202 205 206 204 202 202 204 205 206 205 204 202 200 200 199 200 200 200 198 198 197 197 196 196 195 193 192 192 194 196 196 196 195
20 20 19 16 12 5 356 346 338 331 325 321 317 313 309 306 306 309 312 313 313 310 307 298 287 275 259 240 221 206 196 193 195 199 199 195 191 184 173 162 158 161 167 176 186 197 207 209 208 207 204 197 194 196 200 204 204 202 201 202 202 202 202 201 199 198 197 196 197 199 200 200 200 200 200 200 200 199 198 197 195 196 197 197 197 195
24 25 25 25 24 22 17 10 1 351 341 333 327 321 315 310 308 307 309 310 310 310 307 300 289 276 262 247 227 211 199 195 195 198 199 197 193 185 172 164 161 163 167 175 183 195 206 206 204 204 202 193 189 190 195 198 199 198 198 199 199 199 198 198 197 195 194 194 196 198 199 200 201 202 203 203 202 202 201 200 199 198 198 198 198 196
26 26 25 25 25 25 23 21 17 11 3 353 343 333 325 317 311 307 306 306 306 306 305 302 293 277 260 243 229 216 203 196 195 198 200 200 196 186 174 166 164 165 168 175 183 194 204 204 201 200 200 194 191 190 192 193 193 193 194 196 196 196 195 196 196 194 192 192 194 196 196 197 200 202 203 203 203 202 202 202 202 201 200 199 199 198
27 26 25 24 24 23 22 21 18 15 10 4 356 348 338 328 318 310 304 302 301 301 301 301 299 290 267 240 222 212 203 197 196 199 201 201 198 190 180 170 167 168 168 173 180 189 199 202 199 197 201 201 196 191 190 190 189 189 191 194 194 193 192 194 195 194 192 192 194 195 194 195 196 198 200 201 201 201 201 203 204 203 202 200 200 200
28 27 26 24 23 22 21 19 17 13 9 5 2 357 349 339 328 317 307 301 298 297 298 299 301 298 281 246 223 211 203 199 199 201 201 201 199 193 185 171 168 169 170 173 178 182 188 194 194 194 200 203 197 190 187 188 188 188 188 191 192 192 191 192 193 193 192 192 194 194 193 193 194 195 196 196 196 196 197 198 199 199 197 196 196 197
27 26 26 25 23 22 20 18 15 12 9 7 5 1 355 346 335 323 313 306 302 302 302 302 302 300 289 253 225 214 208 206 204 203 203 203 201 196 186 172 165 166 169 173 177 179 182 187 190 193 197 200 194 186 184 186 187 187 186 187 189 190 191 191 192 192 192 193 194 194 192 192 193 193 193 193 193 193 193 192 191 191 190 188 186 185
26 25 25 25 23 22 20 18 15 12 10 9 6 2 357 350 340 327 317 312 311 312 313 312 308 302 289 254 227 219 215 212 207 205 206 207 205 200 191 176 163 160 164 170 174 177 180 186 190 193 198 201 193 184 181 184 186 187 184 182 183 185 187 189 191 192 192 193 194 194 192 191 192 192 192 192 193 193 193 190 189 189 190 186 181 176
25 24 25 23 22 21 20 19 17 14 12 10 7 4 1 358 352 343 333 325 320 321 322 320 316 310 295 266 234 224 219 214 210 207 208 210 210 205 197 184 165 156 159 166 171 176 181 187 190 191 196 201 195 185 179 179 182 185 184 181 179 180 182 185 188 190 191 193 194 194 192 190 190 190 190 189 190 191 192 189 187 186 188 188 185 179
25 24 23 22 21 21 21 20 18 17 14 12 10 8 5 3 1 1 1 357 353 349 342 337 329 321 311 304 247 229 223 217 212 211 211 213 213 210 205 193 175 161 158 162 168 177 185 190 190 190 193 196 191 182 174 173 176 180 182 182 179 177 176 180 185 188 189 190 192 192 191 189 187 186 185 183 183 185 187 186 185 183 183 183 184 184
26 24 23 22 21 21 21 20 18 17 16 16 16 15 12 8 6 6 10 12 11 7 2 358 352 342 331 311 254 235 232 221 215 213 214 215 215 213 209 201 185 169 159 158 166 179 189 192 191 189 189 190 187 179 170 167 169 174 179 183 181 175 169 171 177 182 184 186 187 187 187 186 184 182 181 180 179 179 180 181 181 181 181 181 181 183
25 24 23 22 22 22 21 20 19 18 18 19 20 20 18 14 11 11 15 19 18 14 9 4 357 346 325 264 229 230 232 226 217 214 215 216 216 214 210 203 191 175 163 159 169 184 192 192 189 185 184 184 182 177 171 168 167 169 173 178 181 178 172 169 171 174 178 181 183 184 184 184 183 182 181 179 178 178 178 178 179 180 181 182 183 183
26 24 23 23 23 23 22 22 22 21 22 21 21 20 19 16 14 15 21 24 24 20 16 10 2 345 252 211 201 203 206 210 208 209 212 216 216 213 208 203 194 180 167 165 174 184 190 189 184 180 179 179 176 172 167 166 165 165 165 170 175 178 176 173 173 174 177 179 180 182 184 185 184 182 180 178 177 176 177 178 179 180 182 184 186 188
26 25 24 24 24 24 24 24 24 24 24 22 21 19 18 17 17 20 24 27 29 27 22 12 7 13 176 181 180 178 178 179 181 184 192 204 211 211 206 201 194 184 173 172 178 186 189 187 181 175 173 173 172 169 165 162 161 161 162 165 170 173 174 173 174 176 179 180 180 181 183 184 184 182 178 176 175 175 177 179 181 182 184 186 189 191
27 26 25 24 24 24 24 24 25 25 25 24 21 19 17 17 20 24 28 30 32 33 30 19 16 91 145 153 154 152 150 152 158 164 170 181 195 202 200 198 195 188 181 180 183 187 189 186 181 175 172 169 166 164 163 161 160 159 161 164 168 170 171 172 174 176 179 181 181 181 182 182 182 180 178 176 175 174 175 178 180 183 185 186 188 190
28 27 26 25 24 24 25 25 25 25 25 23 22 20 18 17 21 27 32 33 34 35 35 35 53 100 132 140 144 144 142 140 142 148 155 163 176 187 192 193 192 190 186 186 187 188 187 184 180 176 172 168 165 163 163 161 160 160 162 165 167 170 171 172 173 175 177 180 181 181 181 181 181 180 178 176 174 173 173 174 177 180 182 185 186 187
29 28 26 26 25 25 25 25 25 24 23 22 22 22 20 18 21 28 33 35 37 38 38 42 59 93 117 129 139 143 142 141 142 144 147 153 162 171 179 183 184 183 184 187 189 190 188 185 181 176 172 169 166 164 164 164 163 163 163 165 167 169 171 172 172 173 175 177 178 179 179 181 182 183 181 176 172 170 170 171 173 175 178 180 182 183
29 28 27 27 26 26 25 26 25 24 23 21 21 23 23 23 25 30 36 38 41 43 44 45 57 79 98 116 130 137 138 140 141 142 145 150 157 163 167 170 170 170 172 180 185 187 185 181 179 176 173 169 166 165 165 165 165 164 164 165 167 169 170 170 171 172 173 174 174 175 176 177 180 182 182 178 173 170 168 168 169 171 174 176 178 179
30 29 28 27 27 27 26 27 26 26 24 23 23 23 25 27 31 36 41 44 47 49 49 50 57 70 81 100 122 133 137 139 140 141 144 150 156 161 163 163 160 158 159 167 174 178 178 174 170 169 169 167 165 164 165 165 165 164 163 163 165 167 168 168 170 171 172 173 173 174 174 174 175 177 179 177 173 169 167 166 166 168 171 173 175 176